Dewpoint
35 35 36 36 36 37 37 37 36 36 36 36 35 35 34 34 34 33 33 34 33 34 34 35 36 37 37 38 38 39 39 39 39 39 39 39 40 40 40 40 40 40 40 40 40 40 40 40 41 41 41 40 40 40 40 40 39 39 39 38 38 37 36 34 32 30 29 28 28
36 36 36 36 36 37 37 37 36 36 35 36 35 35 34 34 34 34 34 34 34 35 36 36 37 38 38 39 39 39 39 39 40 39 39 40 40 40 40 39 40 40 40 40 40 40 40 40 40 40 40 40 40 39 39 39 39 38 38 37 37 35 33 32 30 29 29 28 28
37 37 37 37 37 37 37 37 35 34 33 33 33 33 33 34 34 34 34 34 35 36 37 37 38 39 39 39 39 40 40 40 40 40 40 40 40 40 40 40 40 40 40 40 40 40 40 40 40 40 39 40 39 39 39 39 39 38 37 36 35 33 32 31 30 29 29 29 28
37 36 36 36 37 37 36 35 33 33 32 32 32 32 33 34 34 34 35 35 36 37 37 38 38 39 39 39 39 40 40 40 40 40 40 40 40 40 40 40 40 40 40 40 40 40 40 40 40 40 39 39 39 38 39 39 38 37 37 35 33 32 31 30 30 29 29 29 28
35 35 35 35 35 35 34 33 32 32 33 33 34 34 34 34 34 35 36 37 37 38 38 39 39 39 39 39 39 40 40 40 39 40 40 40 40 40 40 40 40 40 40 40 40 40 40 40 40 40 39 39 39 38 38 38 37 36 35 33 32 31 30 29 29 29 29 29 29
33 32 32 32 32 32 32 32 32 33 33 34 34 35 35 35 36 37 37 38 38 39 39 39 39 39 39 40 40 40 40 40 40 40 40 40 40 40 40 40 40 40 40 40 40 40 40 39 39 39 39 39 38 38 38 36 35 33 32 31 30 29 29 29 29 29 29 29 28
31 30 29 29 30 31 32 32 33 33 34 34 35 35 36 36 37 37 38 38 38 38 38 39 39 39 39 40 40 40 40 40 40 40 40 40 40 39 39 39 40 40 40 40 39 39 39 39 39 39 39 38 38 37 35 32 32 31 29 28 29 29 28 28 28 28 28 28 28
30 29 29 30 30 31 32 33 34 34 35 35 36 36 36 37 37 37 37 38 38 38 38 39 39 39 39 39 39 39 39 39 39 40 40 40 39 39 39 40 39 39 39 39 39 39 39 38 38 37 36 34 33 32 31 29 29 28 28 28 28 28 27 26 26 26 26 26 26
29 29 30 31 32 33 33 34 35 35 35 36 36 36 36 37 37 37 37 38 38 38 38 39 39 39 39 39 39 39 39 39 39 39 39 39 39 39 40 40 39 39 39 39 39 38 38 36 35 33 32 31 30 29 28 28 28 27 27 27 27 27 27 26 26 26 25 25 25
28 29 30 32 32 33 34 34 35 35 36 36 36 36 36 37 37 37 38 38 38 38 39 39 39 39 39 39 39 39 39 39 39 39 39 39 39 39 39 39 39 38 38 37 37 37 36 34 32 30 29 28 28 28 27 27 26 25 25 26 25 24 24 24 25 25 24 23 23
28 29 30 31 32 32 33 34 35 35 36 36 36 36 36 37 37 37 37 38 38 39 39 39 39 39 39 39 39 39 39 39 39 39 39 39 39 38 38 38 37 37 36 36 35 33 32 31 29 28 27 26 26 25 25 24 23 23 23 23 23 22 22 23 23 23 23 22 22
28 28 29 30 31 32 32 33 34 35 35 35 35 36 36 37 37 37 38 38 38 38 39 39 39 39 39 39 39 39 39 40 39 39 38 38 38 37 37 37 36 35 34 33 31 28 27 26 25 24 23 23 23 23 23 22 22 22 22 22 22 22 21 21 21 21 21 22 21
27 28 28 29 30 31 32 33 33 34 34 35 35 36 36 37 37 37 37 38 38 38 39 39 39 39 39 40 40 40 39 39 38 38 37 37 37 36 35 34 33 31 29 27 25 24 23 22 22 22 21 21 21 22 22 22 22 22 21 21 21 21 22 22 22 22 22 22 22
26 27 27 28 29 30 31 32 32 33 34 34 35 35 36 36 37 37 37 37 37 38 38 39 39 39 39 39 39 38 38 37 37 37 36 35 34 32 31 29 28 26 24 23 23 23 22 22 22 22 22 22 22 23 23 23 23 22 22 22 22 22 22 22 23 23 23 23 23
25 26 26 27 28 29 30 31 32 32 33 33 34 34 35 35 35 35 35 36 37 37 37 38 38 38 38 38 38 37 37 36 35 34 32 31 29 27 26 24 24 23 23 23 24 24 24 24 24 24 24 24 24 24 24 24 23 23 23 23 23 23 23 23 23 23 23 23 23
24 25 26 27 28 28 29 30 31 31 32 32 32 32 32 32 32 32 33 34 35 36 37 37 37 37 37 37 37 36 34 32 31 29 28 26 25 24 24 24 24 25 25 26 26 26 26 26 26 26 26 26 26 26 25 25 24 24 24 24 24 24 24 24 24 24 24 24 24
24 24 25 26 27 28 28 28 29 29 29 29 29 29 29 30 31 32 32 33 34 35 35 36 36 35 35 34 32 31 30 28 26 25 24 24 24 25 25 26 27 27 27 28 28 28 28 28 28 28 27 27 27 26 26 26 25 25 25 25 25 25 25 25 25 25 25 25 24
23 24 24 25 26 26 27 27 27 27 27 27 28 28 29 30 32 32 33 34 34 34 34 34 33 32 30 29 28 27 27 26 25 25 25 26 26 27 28 28 28 28 28 28 28 28 28 28 28 28 27 27 27 27 26 26 26 26 26 26 26 26 26 26 25 25 25 25 25
23 23 24 24 25 25 26 26 26 26 26 26 27 28 29 31 32 33 33 34 34 33 33 32 30 28 27 26 26 26 27 27 27 27 27 28 28 28 28 29 29 29 29 29 29 28 28 28 28 28 28 27 27 27 27 27 27 27 26 26 26 26 26 26 25 25 25 25 25
23 23 23 23 24 24 24 24 24 24 25 25 27 28 30 31 31 32 32 32 31 31 30 29 28 27 26 27 27 27 28 28 28 28 28 29 29 29 29 29 29 29 29 29 29 28 28 28 28 28 28 28 28 27 27 27 27 26 26 26 26 26 25 25 25 25 25 25 24
22 23 23 23 23 24 24 24 24 24 25 26 28 28 29 29 29 29 29 28 28 28 28 28 27 27 27 28 28 28 28 29 29 29 29 29 29 29 29 29 29 29 29 29 28 28 28 28 28 28 28 28 27 27 27 26 26 26 25 25 25 25 25 25 24 24 24 24 24
23 23 24 24 24 24 25 25 26 27 27 28 28 28 28 28 28 28 28 28 28 28 28 28 28 28 28 28 29 29 29 29 29 29 29 29 29 29 29 29 29 29 29 28 28 28 28 28 28 28 27 27 26 26 26 25 25 25 24 24 24 24 24 24 24 24 24 24 24
25 25 26 27 27 28 28 28 28 29 29 30 30 30 30 29 29 30 30 30 29 29 29 29 29 29 29 29 29 29 29 29 29 29 29 29 29 29 29 29 29 29 28 28 28 28 27 27 27 26 26 25 25 25 24 24 24 23 23 23 23 23 23 23 23 23 23 23 23
27 28 29 29 30 30 30 31 31 31 31 32 32 32 32 32 32 32 32 31 31 30 29 29 29 29 29 29 29 29 29 29 29 29 29 29 29 29 29 29 28 28 28 28 28 28 27 27 26 25 24 24 23 23 23 23 23 23 23 23 23 23 23 23 22 22 22 21 22
30 30 31 32 32 32 32 32 32 32 32 32 33 34 34 34 33 33 32 32 31 30 29 29 29 29 29 29 29 29 29 29 29 29 28 28 28 28 28 28 28 28 27 26 28 30 30 29 28 26 24 24 23 23 23 23 23 23 23 23 23 23 22 22 21 21 21 21 21
32 32 32 32 32 32 32 32 33 33 33 34 35 35 35 34 34 33 32 32 31 30 29 29 29 29 30 30 30 30 29 29 29 28 28 28 28 28 28 27 27 26 25 26 28 30 31 31 30 29 27 25 24 24 23 23 23 22 22 22 22 21 22 22 22 21 21 22 22
34 34 34 34 34 34 34 34 34 35 35 36 36 36 35 34 34 33 32 31 30 29 29 29 30 32 32 31 31 30 29 29 28 28 28 28 28 27 26 26 25 24 24 26 28 29 30 30 30 30 28 27 25 23 23 22 21 21 21 20 20 20 20 21 22 22 23 23 23
34 34 35 35 35 35 35 35 36 36 36 36 36 35 35 34 33 32 32 31 30 30 30 31 32 33 33 32 31 30 29 28 28 28 28 27 27 26 25 23 23 22 23 26 27 28 28 29 29 30 30 28 25 23 22 21 21 20 20 19 19 19 20 21 22 23 23 23 23
34 34 35 35 35 36 36 36 36 35 35 35 34 34 33 33 32 32 31 31 31 32 32 33 33 33 32 32 30 29 28 28 28 28 27 26 24 23 22 21 20 20 23 26 27 27 27 28 28 30 31 29 26 23 21 21 21 20 20 21 21 21 22 22 23 22 22 22 22
33 34 35 35 35 35 34 33 33 32 32 32 32 32 32 32 32 31 31 32 32 32 33 33 32 32 31 30 29 28 28 28 27 25 24 22 21 19 19 19 18 19 22 25 26 26 27 28 28 30 32 31 28 24 22 21 21 21 21 23 22 22 22 22 22 22 22 22 22
32 32 32 32 32 32 31 30 30 31 31 31 31 31 31 32 32 32 32 33 33 33 32 32 31 30 29 28 28 27 26 25 23 22 20 19 18 18 18 18 18 19 21 25 25 26 27 28 28 30 31 30 28 25 23 21 21 21 22 23 22 22 22 22 22 22 22 22 23
30 30 30 30 30 29 29 29 30 30 31 31 31 32 32 32 33 33 33 33 32 32 31 30 29 28 27 26 25 23 23 21 20 19 18 18 17 17 17 18 17 19 21 24 25 26 28 28 28 29 29 29 28 25 23 21 21 21 22 21 21 22 22 22 22 23 23 23 23
29 29 29 29 29 29 29 30 31 32 33 33 33 34 34 34 34 33 33 32 30 29 28 28 27 25 24 23 21 20 19 19 18 18 18 18 17 17 17 18 17 19 21 24 25 27 28 28 28 28 28 28 27 24 22 21 21 22 22 22 22 22 22 22 23 23 23 23 23
28 29 29 29 29 30 31 32 33 34 34 34 34 34 34 33 32 32 30 29 28 27 26 25 24 23 22 20 19 19 19 18 18 17 17 17 17 17 17 16 15 18 22 24 26 27 28 27 27 27 27 27 26 23 21 20 21 21 22 22 22 22 23 23 23 23 23 23 24
29 30 31 31 32 32 32 33 33 33 32 32 32 32 31 30 29 28 28 27 26 24 23 22 21 20 19 19 19 18 18 18 17 16 16 16 16 16 16 16 15 19 23 25 27 27 27 26 26 26 26 26 24 22 21 20 20 21 21 22 22 22 23 23 23 23 24 24 24
32 32 32 32 33 33 32 32 32 32 31 32 32 31 30 28 28 27 26 25 23 21 20 19 19 18 18 18 18 18 18 17 16 16 16 16 15 15 15 15 15 19 23 25 26 26 26 25 25 25 25 25 23 22 21 21 21 21 21 21 22 22 23 23 24 24 25 25 25
34 33 33 33 33 32 32 32 32 31 31 32 32 31 29 28 27 26 24 22 20 19 19 18 18 17 17 17 17 17 17 17 17 16 16 16 15 14 14 14 15 17 21 25 26 26 25 25 25 24 24 23 22 21 21 21 21 21 21 21 22 22 23 23 24 24 25 26 27
34 34 33 32 32 31 31 30 30 30 30 30 29 28 27 25 24 23 22 20 19 18 18 17 17 16 16 16 16 16 16 16 16 16 15 15 14 14 14 14 15 17 20 24 25 25 25 24 24 24 23 22 21 21 21 20 20 21 21 21 21 21 22 22 23 23 25 27 28
33 32 31 30 28 28 27 26 26 27 26 26 25 24 24 23 22 21 21 19 19 18 17 16 16 16 16 16 16 16 16 16 15 15 15 15 14 15 15 14 15 17 19 23 25 25 24 24 23 23 23 23 21 20 20 20 20 20 21 21 20 20 20 21 22 23 24 26 28
30 28 27 25 24 23 23 23 23 23 23 23 23 23 22 21 20 20 20 19 18 17 16 16 16 15 16 16 15 15 15 15 15 14 14 14 15 17 19 16 15 16 19 22 24 24 24 23 23 23 23 22 21 21 20 20 20 20 20 20 20 20 20 20 21 23 23 24 25
26 24 24 23 23 23 23 22 22 22 22 22 22 22 21 20 19 19 19 17 16 16 16 15 15 15 15 15 15 14 14 14 14 14 14 14 14 17 19 16 15 14 16 19 23 24 23 23 23 23 23 23 21 21 21 20 20 20 20 20 21 21 21 21 23 23 24 24 23